"startDT [UTC]","vpos","CH4 [ppm]","stdev(CH4) [ppm]","CO2 [ppm]","stdev(CO2) [ppm]","H2O [ppm]","stdev(H2O)","p_LGR [torr]","T_LGR [C]","mt1_LGR [us]","mt2_LGR [us]","T_ECpre [C]","T_EC1 [C]","T_EC2 [C]","p_inlet [hPa]","p_in [hPa]","p_out [hPa]","T_inlet [C]","RH_inlet [%]","dwpt_inlet [C]","T_vent [C]","RH_vent [%]","dwpt_vent [C]","flow_vent [l min-1]","flow_inlet [l min-1]","dwpt_sample [C]","T_room [C]"
2013-01-23 00:00:00,0.0,1.9160,0.0009,402.50,0.42,-1.0,0.0,138.05,31.35,24.66,36.41,0.04,-272.74,-272.75,-49,552,-941,23.2,1.3,-32.9,23.2,1.4,-32.2,5.73,2.39,-30.8,28.0
2013-01-23 00:01:00,0.0,1.9156,0.0009,402.61,0.39,-1.0,0.0,138.05,31.34,24.65,36.41,0.04,-272.75,-272.75,-49,552,-941,23.2,1.3,-32.9,23.2,1.4,-32.2,5.73,2.39,-30.8,28.0
2013-01-23 00:02:00,0.0,1.9152,0.0012,402.54,0.55,-1.0,0.0,138.06,31.34,24.65,36.41,0.04,-272.75,-272.75,-49,552,-941,23.2,1.3,-32.9,23.1,1.4,-32.2,5.73,2.40,-30.8,28.0
2013-01-23 00:03:00,0.0,1.9146,0.0008,402.37,0.38,-1.0,0.0,138.06,31.34,24.66,36.42,0.04,-272.75,-272.75,-49,552,-941,23.2,1.3,-33.0,23.1,1.4,-32.2,5.73,2.41,-30.8,28.0
2013-01-23 00:04:00,0.0,1.9156,0.0010,402.48,0.39,-1.0,0.0,138.05,31.33,24.65,36.42,0.04,-272.75,-272.75,-49,552,-941,23.3,1.3,-33.0,23.1,1.4,-32.2,5.73,2.42,-30.8,28.0
2013-01-23 00:05:00,0.0,1.9153,0.0010,402.48,0.40,-1.0,0.0,138.05,31.33,24.66,36.41,0.04,-272.75,-272.75,-49,552,-941,23.2,1.3,-32.9,23.2,1.4,-32.2,5.73,2.43,-30.8,28.0
2013-01-23 00:06:00,0.0,1.9155,0.0009,402.55,0.45,-1.0,0.0,138.06,31.33,24.66,36.41,0.04,-272.75,-272.75,-49,552,-941,23.3,1.4,-32.8,23.1,1.5,-32.1,5.73,2.43,-30.8,28.0
2013-01-23 00:07:00,0.0,1.9163,0.0011,402.44,0.39,-1.0,0.0,138.05,31.33,24.66,36.41,0.04,-272.75,-272.75,-49,552,-941,23.3,1.4,-32.7,23.2,1.5,-32.0,5.73,2.43,-30.8,28.0
2013-01-23 00:08:00,0.0,1.9177,0.0010,402.65,0.41,-1.0,0.0,138.05,31.33,24.65,36.41,0.04,-272.75,-272.75,-49,552,-941,23.3,1.4,-32.8,23.2,1.5,-32.0,5.73,2.42,-30.8,28.0
2013-01-23 00:09:00,0.0,1.9185,0.0009,402.64,0.43,-1.0,0.0,138.05,31.33,24.65,36.42,0.04,-272.75,-272.75,-49,552,-941,23.2,1.4,-32.8,23.2,1.5,-32.1,5.73,2.42,-30.8,28.0
2013-01-23 00:10:00,0.0,1.9170,0.0009,402.71,0.43,-1.0,0.0,138.05,31.33,24.66,36.41,0.04,-272.75,-272.75,-49,552,-941,23.3,1.4,-32.7,23.2,1.5,-32.0,5.73,2.41,-30.7,28.1
2013-01-23 00:11:00,0.0,1.9173,0.0010,402.57,0.45,-1.0,0.0,138.05,31.33,24.65,36.42,0.04,-272.75,-272.75,-49,552,-941,23.2,1.4,-32.7,23.2,1.5,-32.0,5.73,2.40,-30.7,28.1
2013-01-23 00:12:00,0.0,1.9172,0.0007,402.59,0.43,-1.0,0.0,138.05,31.33,24.66,36.41,0.04,-272.75,-272.75,-49,552,-941,23.2,1.4,-32.5,23.2,1.5,-31.8,5.73,2.39,-30.7,28.1
2013-01-23 00:13:00,0.0,1.9167,0.0010,402.74,0.41,-1.0,0.0,138.05,31.33,24.66,36.41,0.04,-272.75,-272.75,-49,552,-941,23.3,1.4,-32.5,23.2,1.5,-31.8,5.73,2.39,-30.7,28.1
2013-01-23 00:14:00,0.0,1.9168,0.0008,402.66,0.40,-1.0,0.0,138.06,31.32,24.65,36.41,0.04,-272.75,-272.75,-49,553,-941,23.3,1.4,-32.5,23.2,1.5,-31.8,5.73,2.39,-30.7,28.0
2013-01-23 00:15:00,0.0,1.9168,0.0011,402.43,0.43,-1.0,0.0,138.06,31.32,24.65,36.42,0.04,-272.75,-272.75,-49,552,-941,23.3,1.4,-32.5,23.2,1.5,-31.8,5.73,2.39,-30.7,28.0
2013-01-23 00:16:00,0.0,1.9165,0.0012,402.64,0.34,-1.0,0.0,138.06,31.32,24.65,36.41,0.04,-272.75,-272.75,-49,552,-941,23.3,1.4,-32.5,23.2,1.5,-31.8,5.73,2.40,-30.7,28.0
2013-01-23 00:17:00,0.0,1.9164,0.0009,402.45,0.36,-1.0,0.0,138.06,31.32,24.66,36.42,0.04,-272.75,-272.75,-49,552,-941,23.3,1.4,-32.5,23.2,1.5,-31.8,5.73,2.41,-30.7,28.0
2013-01-23 00:18:00,0.0,1.9166,0.0009,402.63,0.38,-1.0,0.0,138.06,31.31,24.65,36.41,0.04,-272.75,-272.75,-49,552,-941,23.2,1.4,-32.6,23.1,1.5,-31.9,5.73,2.42,-30.7,28.0
2013-01-23 00:19:00,0.0,1.9158,0.0008,402.55,0.36,-1.0,0.0,138.06,31.30,24.66,36.42,0.04,-272.75,-272.75,-49,552,-940,23.3,1.4,-32.5,23.2,1.5,-31.8,5.73,2.43,-30.7,28.1
2013-01-23 00:20:00,0.0,1.9160,0.0009,402.61,0.40,-1.0,0.0,138.06,31.30,24.66,36.41,0.04,-272.75,-272.75,-49,552,-940,23.3,1.4,-32.5,23.2,1.5,-31.8,5.73,2.43,-30.7,28.0
2013-01-23 00:21:00,0.0,1.9163,0.0011,402.63,0.41,-1.0,0.0,138.06,31.29,24.65,36.41,0.04,-272.75,-272.75,-49,553,-940,23.3,1.4,-32.3,23.2,1.5,-31.6,5.73,2.43,-30.7,28.1
2013-01-23 00:22:00,0.0,1.9165,0.0007,402.66,0.43,-1.0,0.0,138.06,31.29,24.65,36.41,0.04,-272.75,-272.75,-49,553,-940,23.2,1.4,-32.3,23.1,1.5,-31.6,5.73,2.42,-30.7,28.1
2013-01-23 00:23:00,0.0,1.9164,0.0009,402.69,0.37,-1.0,0.0,138.06,31.29,24.65,36.41,0.04,-272.74,-272.75,-49,552,-940,23.2,1.4,-32.3,23.1,1.5,-31.7,5.73,2.41,-30.7,28.1
2013-01-23 00:24:00,0.0,1.9162,0.0010,402.66,0.37,-1.0,0.0,138.06,31.28,24.65,36.41,0.04,-272.75,-272.75,-49,553,-940,23.2,1.4,-32.3,23.1,1.5,-31.6,5.73,2.39,-30.6,28.0
2013-01-23 00:25:00,0.0,1.9160,0.0008,402.48,0.42,-1.0,0.0,138.06,31.28,24.66,36.42,0.04,-272.75,-272.75,-49,552,-940,23.3,1.4,-32.3,23.1,1.5,-31.7,5.73,2.39,-30.6,28.0
2013-01-23 00:26:00,0.0,1.9165,0.0010,402.61,0.44,-1.0,0.0,138.06,31.28,24.65,36.41,0.04,-272.75,-272.75,-49,552,-940,23.2,1.4,-32.4,23.2,1.5,-31.7,5.73,2.39,-30.6,28.0
2013-01-23 00:27:00,0.0,1.9167,0.0009,402.57,0.43,-1.0,0.0,138.06,31.28,24.65,36.41,0.04,-272.75,-272.75,-49,553,-940,23.3,1.4,-32.3,23.2,1.5,-31.6,5.73,2.39,-30.6,28.1
2013-01-23 00:28:00,0.0,1.9164,0.0010,402.66,0.41,-1.0,0.0,138.06,31.28,24.65,36.41,0.04,-272.75,-272.75,-49,553,-940,23.3,1.4,-32.3,23.2,1.5,-31.7,5.73,2.39,-30.6,28.1
2013-01-23 00:29:00,0.0,1.9163,0.0010,402.69,0.42,-1.0,0.0,138.06,31.28,24.65,36.41,0.04,-272.75,-272.75,-49,552,-940,23.3,1.4,-32.3,23.2,1.5,-31.7,5.73,2.40,-30.6,28.1
2013-01-23 00:30:00,0.0,1.9161,0.0010,402.50,0.41,-1.0,0.0,138.06,31.27,24.66,36.41,0.04,-272.75,-272.75,-49,553,-940,23.3,1.4,-32.3,23.2,1.5,-31.8,5.73,2.41,-30.6,28.1
2013-01-23 00:31:00,0.0,1.9161,0.0010,402.58,0.39,-1.0,0.0,138.06,31.27,24.65,36.42,0.04,-272.75,-272.75,-49,553,-940,23.2,1.4,-32.4,23.2,1.5,-31.7,5.73,2.42,-30.6,28.1
2013-01-23 00:32:00,0.0,1.9164,0.0010,402.65,0.40,-1.0,0.0,138.06,31.27,24.65,36.41,0.04,-272.75,-272.75,-49,553,-940,23.2,1.4,-32.3,23.2,1.5,-31.7,5.73,2.43,-30.6,28.1
2013-01-23 00:33:00,0.0,1.9162,0.0009,402.79,0.45,-1.0,0.0,138.06,31.27,24.65,36.40,0.04,-272.75,-272.75,-49,553,-940,23.3,1.4,-32.4,23.2,1.5,-31.6,5.73,2.43,-30.6,28.1
2013-01-23 00:34:00,0.0,1.9156,0.0007,402.62,0.41,-1.0,0.0,138.06,31.26,24.66,36.41,0.04,-272.76,-272.75,-49,553,-940,23.2,1.4,-32.3,23.2,1.5,-31.6,5.73,2.42,-30.6,28.1
2013-01-23 00:35:00,0.0,1.9162,0.0007,402.67,0.39,-1.0,0.0,138.06,31.26,24.65,36.41,0.04,-272.75,-272.75,-49,553,-940,23.3,1.4,-32.3,23.2,1.5,-31.7,5.73,2.42,-30.6,28.1
2013-01-23 00:36:00,0.0,1.9163,0.0011,402.54,0.44,-1.0,0.0,138.06,31.26,24.65,36.41,0.04,-272.75,-272.75,-49,553,-940,23.2,1.4,-32.3,23.2,1.5,-31.7,5.73,2.41,-30.5,28.1
2013-01-23 00:37:00,0.0,1.9187,0.0010,402.59,0.42,-1.0,0.0,138.06,31.26,24.65,36.41,0.04,-272.75,-272.75,-49,553,-940,23.3,1.4,-32.4,23.2,1.5,-31.7,5.73,2.40,-30.5,28.1
2013-01-23 00:38:00,0.0,1.9189,0.0010,402.55,0.40,-1.0,0.0,138.06,31.25,24.65,36.41,0.04,-272.75,-272.75,-49,553,-940,23.3,1.4,-32.5,23.2,1.5,-31.8,5.73,2.39,-30.5,28.1
2013-01-23 00:39:00,0.0,1.9182,0.0009,402.59,0.43,-1.0,0.0,138.06,31.25,24.66,36.41,0.04,-272.75,-272.75,-49,553,-940,23.3,1.4,-32.6,23.2,1.5,-31.8,5.73,2.38,-30.5,28.1
2013-01-23 00:40:00,0.0,1.9181,0.0009,402.57,0.43,-1.0,0.0,138.06,31.24,24.66,36.41,0.04,-272.75,-272.75,-49,553,-940,23.3,1.4,-32.7,23.2,1.5,-32.0,5.73,2.38,-30.5,28.1
2013-01-23 00:41:00,0.0,1.9158,0.0011,402.52,0.40,-1.0,0.0,138.06,31.24,24.66,36.41,0.04,-272.75,-272.75,-49,553,-940,23.3,1.4,-32.8,23.2,1.5,-32.1,5.73,2.39,-30.5,28.1
2013-01-23 00:42:00,0.0,1.9150,0.0009,402.70,0.39,-1.0,0.0,138.06,31.23,24.66,36.41,0.04,-272.75,-272.75,-49,553,-940,23.2,1.3,-32.8,23.2,1.5,-32.0,5.73,2.40,-30.5,28.0
2013-01-23 00:43:00,0.0,1.9159,0.0010,402.35,0.46,-1.0,0.0,138.06,31.23,24.65,36.42,0.04,-272.75,-272.75,-49,553,-940,23.3,1.3,-32.9,23.2,1.5,-32.1,5.73,2.41,-30.5,28.1
2013-01-23 00:44:00,0.0,1.9160,0.0010,402.44,0.39,-1.0,0.0,138.06,31.22,24.65,36.42,0.04,-272.75,-272.75,-49,553,-940,23.3,1.4,-32.7,23.2,1.5,-32.1,5.73,2.42,-30.5,28.1
2013-01-23 00:45:00,0.0,1.9163,0.0011,402.45,0.44,-1.0,0.0,138.06,31.22,24.65,36.42,0.04,-272.75,-272.75,-49,553,-940,23.2,1.4,-32.7,23.2,1.5,-32.0,5.73,2.42,-30.5,28.1
2013-01-23 00:46:00,0.0,1.9141,0.0009,402.44,0.38,-1.0,0.0,138.06,31.22,24.66,36.41,0.04,-272.75,-272.75,-49,553,-940,23.3,1.4,-32.8,23.2,1.5,-32.1,5.73,2.43,-30.5,28.1
2013-01-23 00:47:00,0.0,1.9154,0.0012,402.42,0.35,-1.0,0.0,138.06,31.22,24.66,36.42,0.04,-272.75,-272.75,-49,553,-940,23.3,1.4,-32.7,23.2,1.4,-32.2,5.73,2.42,-30.5,28.1
2013-01-23 00:48:00,0.0,1.9156,0.0014,402.53,0.44,-1.0,0.0,138.06,31.22,24.66,36.41,0.04,-272.75,-272.75,-49,553,-940,23.3,1.4,-32.7,23.2,1.5,-32.1,5.73,2.42,-30.5,28.1
2013-01-23 00:49:00,0.0,1.9169,0.0009,402.57,0.39,-1.0,0.0,138.06,31.22,24.65,36.41,0.04,-272.75,-272.75,-49,553,-940,23.3,1.4,-32.8,23.2,1.5,-32.1,5.73,2.41,-30.5,28.1
2013-01-23 00:50:00,0.0,1.9157,0.0009,402.53,0.41,-1.0,0.0,138.06,31.22,24.65,36.41,0.04,-272.75,-272.75,-49,553,-940,23.3,1.4,-32.8,23.2,1.4,-32.2,5.73,2.40,-30.5,28.1
2013-01-23 00:51:00,0.0,1.9152,0.0009,402.56,0.43,-1.0,0.0,138.06,31.22,24.65,36.41,0.04,-272.75,-272.75,-49,553,-940,23.3,1.3,-32.9,23.2,1.4,-32.3,5.73,2.39,-30.5,28.1
2013-01-23 00:52:00,0.0,1.9155,0.0009,402.48,0.39,-1.0,0.0,138.06,31.21,24.65,36.41,0.04,-272.75,-272.75,-49,553,-940,23.3,1.3,-32.9,23.2,1.4,-32.4,5.73,2.38,-30.5,28.1
2013-01-23 00:53:00,0.0,1.9163,0.0010,402.52,0.39,-1.0,0.0,138.06,31.21,24.65,36.42,0.04,-272.75,-272.75,-49,553,-940,23.3,1.3,-33.1,23.2,1.4,-32.4,5.73,2.38,-30.5,28.1
2013-01-23 00:54:00,0.0,1.9152,0.0010,402.37,0.41,-1.0,0.0,138.06,31.21,24.66,36.41,0.04,-272.75,-272.75,-49,553,-940,23.3,1.3,-33.1,23.2,1.4,-32.5,5.73,2.38,-30.4,28.1
2013-01-23 00:55:00,0.0,1.9150,0.0012,402.46,0.34,-1.0,0.0,138.06,31.20,24.66,36.42,0.04,-272.75,-272.75,-49,553,-940,23.3,1.3,-33.2,23.2,1.4,-32.7,5.73,2.40,-30.4,28.1
2013-01-23 00:56:00,0.0,1.9154,0.0008,402.49,0.34,-1.0,0.0,138.06,31.20,24.66,36.41,0.04,-272.75,-272.75,-49,553,-940,23.3,1.3,-33.4,23.2,1.4,-32.7,5.73,2.41,-30.4,28.1
2013-01-23 00:57:00,0.0,1.9168,0.0010,402.54,0.40,-1.0,0.0,138.06,31.20,24.65,36.41,0.04,-272.75,-272.75,-49,553,-940,23.3,1.3,-33.3,23.2,1.4,-32.7,5.73,2.42,-30.4,28.1
2013-01-23 00:58:00,0.0,1.9162,0.0009,402.46,0.41,-1.0,0.0,138.06,31.19,24.65,36.42,0.04,-272.75,-272.75,-49,553,-940,23.3,1.3,-33.4,23.2,1.4,-32.8,5.73,2.43,-30.4,28.1
2013-01-23 00:59:00,0.0,1.9152,0.0009,402.46,0.39,-1.0,0.0,138.06,31.19,24.65,36.42,0.04,-272.75,-272.75,-49,553,-940,23.3,1.3,-33.1,23.2,1.4,-32.6,5.73,2.43,-30.4,28.1
2013-01-23 01:00:00,0.0,1.9156,0.0008,402.39,0.42,-1.0,0.0,138.06,31.19,24.65,36.42,0.04,-272.75,-272.75,-49,553,-940,23.3,1.3,-33.1,23.2,1.4,-32.6,5.73,2.42,-30.4,28.1
2013-01-23 01:01:00,0.0,1.9156,0.0009,402.37,0.53,-1.0,0.0,138.06,31.19,24.65,36.42,0.04,-272.75,-272.75,-49,553,-940,23.3,1.3,-33.1,23.2,1.4,-32.4,5.73,2.42,-30.4,28.1
2013-01-23 01:02:00,0.0,1.9152,0.0010,402.42,0.42,-1.0,0.0,138.06,31.19,24.65,36.41,0.04,-272.75,-272.75,-49,553,-940,23.3,1.3,-33.2,23.2,1.4,-32.4,5.73,2.41,-30.4,28.1
2013-01-23 01:03:00,0.0,1.9156,0.0009,402.42,0.39,-1.0,0.0,138.06,31.19,24.65,36.42,0.04,-272.75,-272.75,-49,553,-940,23.3,1.3,-33.1,23.2,1.4,-32.4,5.73,2.40,-30.4,28.2
2013-01-23 01:04:00,0.0,1.9159,0.0009,402.59,0.42,-1.0,0.0,138.06,31.18,24.65,36.42,0.04,-272.75,-272.75,-49,553,-940,23.3,1.3,-33.1,23.2,1.4,-32.4,5.73,2.39,-30.4,28.1
2013-01-23 01:05:00,0.0,1.9156,0.0008,402.36,0.42,-1.0,0.0,138.06,31.18,24.65,36.42,0.04,-272.75,-272.75,-49,553,-940,23.3,1.3,-33.1,23.2,1.4,-32.4,5.73,2.38,-30.4,28.2
2013-01-23 01:06:00,0.0,1.9152,0.0011,402.42,0.46,-1.0,0.0,138.06,31.18,24.66,36.42,0.04,-272.75,-272.76,-49,553,-940,23.3,1.3,-32.9,23.2,1.4,-32.4,5.73,2.39,-30.4,28.2
2013-01-23 01:07:00,0.0,1.9160,0.0010,402.39,0.38,-1.0,0.0,138.06,31.17,24.65,36.42,0.04,-272.75,-272.75,-49,553,-940,23.3,1.3,-32.9,23.2,1.4,-32.3,5.73,2.39,-30.4,28.2
2013-01-23 01:08:00,0.0,1.9152,0.0008,402.46,0.30,-1.0,0.0,138.06,31.17,24.65,36.42,0.04,-272.75,-272.75,-49,553,-940,23.3,1.3,-32.9,23.2,1.4,-32.4,5.73,2.39,-30.4,28.2
2013-01-23 01:09:00,0.0,1.9155,0.0009,402.35,0.43,-1.0,0.0,138.06,31.17,24.65,36.42,0.04,-272.75,-272.75,-49,553,-940,23.3,1.3,-32.9,23.2,1.4,-32.4,5.73,2.40,-30.4,28.1
2013-01-23 01:10:00,0.0,1.9146,0.0009,402.43,0.44,-1.0,0.0,138.06,31.17,24.66,36.41,0.04,-272.75,-272.75,-49,553,-940,23.3,1.4,-32.8,23.2,1.4,-32.2,5.73,2.42,-30.4,28.1
2013-01-23 01:11:00,0.0,1.9141,0.0009,402.30,0.42,-1.0,0.0,138.06,31.16,24.65,36.42,0.04,-272.75,-272.75,-49,553,-940,23.3,1.4,-32.7,23.2,1.4,-32.1,5.73,2.42,-30.3,28.1
2013-01-23 01:12:00,0.0,1.9139,0.0009,402.32,0.40,-1.0,0.0,138.06,31.16,24.66,36.42,0.04,-272.75,-272.75,-49,553,-940,23.3,1.4,-32.5,23.2,1.4,-32.1,5.73,2.43,-30.4,28.1
2013-01-23 01:13:00,0.0,1.9138,0.0008,402.31,0.45,-0.9,0.6,138.06,31.16,24.65,36.42,0.04,-272.75,-272.75,-49,553,-940,23.3,1.4,-32.5,23.2,1.5,-32.0,5.73,2.42,-30.3,28.1
2013-01-23 01:14:00,0.0,1.9140,0.0010,402.43,0.43,-1.0,0.0,138.07,31.16,24.66,36.41,0.04,-272.75,-272.75,-49,553,-940,23.3,1.4,-32.6,23.2,1.5,-32.1,5.73,2.42,-30.3,28.1
2013-01-23 01:15:00,0.0,1.9146,0.0009,402.36,0.45,-1.0,0.0,138.07,31.15,24.66,36.41,0.04,-272.75,-272.75,-49,553,-940,23.3,1.4,-32.7,23.2,1.4,-32.2,5.73,2.41,-30.3,28.1
2013-01-23 01:16:00,0.0,1.9143,0.0010,402.31,0.37,-1.0,0.0,138.06,31.15,24.66,36.42,0.04,-272.75,-272.75,-49,553,-940,23.3,1.4,-32.7,23.3,1.4,-32.2,5.73,2.40,-30.3,28.2
2013-01-23 01:17:00,0.0,1.9146,0.0010,402.48,0.43,-0.9,1.1,138.06,31.15,24.65,36.41,0.04,-272.75,-272.75,-49,553,-940,23.3,1.3,-32.9,23.2,1.4,-32.3,5.73,2.40,-30.3,28.2
2013-01-23 01:18:00,0.0,1.9145,0.0010,402.25,0.46,-1.0,0.0,138.06,31.15,24.65,36.42,0.04,-272.75,-272.75,-49,553,-940,23.3,1.3,-32.9,23.2,1.4,-32.4,5.73,2.39,-30.3,28.2
2013-01-23 01:19:00,0.0,1.9143,0.0010,402.30,0.40,-1.0,0.0,138.06,31.15,24.65,36.42,0.04,-272.75,-272.76,-49,553,-940,23.3,1.3,-33.0,23.3,1.4,-32.3,5.73,2.39,-30.3,28.2
2013-01-23 01:20:00,0.0,1.9142,0.0009,402.28,0.44,-1.0,0.0,138.06,31.15,24.65,36.42,0.04,-272.75,-272.75,-49,553,-940,23.3,1.3,-33.1,23.3,1.4,-32.5,5.73,2.38,-30.3,28.2
2013-01-23 01:21:00,0.0,1.9148,0.0009,402.42,0.40,-1.0,0.0,138.06,31.14,24.65,36.41,0.04,-272.75,-272.75,-49,553,-940,23.3,1.3,-33.1,23.3,1.4,-32.6,5.73,2.38,-30.3,28.2
2013-01-23 01:22:00,0.0,1.9150,0.0013,402.35,0.44,-0.7,2.0,138.06,31.14,24.66,36.42,0.04,-272.75,-272.75,-49,553,-940,23.3,1.3,-33.2,23.3,1.4,-32.7,5.73,2.39,-30.3,28.2
2013-01-23 01:23:00,0.0,1.9142,0.0009,402.47,0.37,-0.9,0.6,138.06,31.14,24.66,36.41,0.04,-272.75,-272.75,-49,554,-940,23.3,1.3,-33.4,23.3,1.4,-32.8,5.73,2.40,-30.3,28.2
2013-01-23 01:24:00,0.0,1.9138,0.0009,402.36,0.39,-1.0,0.0,138.06,31.13,24.65,36.41,0.04,-272.75,-272.75,-49,553,-940,23.3,1.3,-33.3,23.3,1.4,-32.8,5.73,2.40,-30.3,28.2
2013-01-23 01:25:00,0.0,1.9139,0.0008,402.33,0.50,-1.0,0.0,138.06,31.13,24.66,36.41,0.04,-272.75,-272.75,-49,553,-940,23.3,1.3,-33.3,23.3,1.4,-32.8,5.73,2.41,-30.3,28.2
2013-01-23 01:26:00,0.0,1.9135,0.0008,402.30,0.40,-1.0,0.0,138.06,31.13,24.66,36.42,0.04,-272.75,-272.75,-49,554,-940,23.3,1.3,-33.3,23.3,1.4,-32.8,5.73,2.42,-30.3,28.2
2013-01-23 01:27:00,0.0,1.9141,0.0009,402.27,0.46,-1.0,0.0,138.07,31.13,24.65,36.42,0.04,-272.75,-272.75,-49,554,-940,23.3,1.3,-33.3,23.3,1.4,-32.7,5.73,2.42,-30.3,28.2
2013-01-23 01:28:00,0.0,1.9143,0.0011,402.34,0.47,-1.0,0.0,138.06,31.12,24.65,36.42,0.04,-272.75,-272.75,-49,554,-940,23.3,1.3,-33.3,23.3,1.4,-32.8,5.73,2.43,-30.3,28.2
2013-01-23 01:29:00,0.0,1.9140,0.0009,402.19,0.40,-1.0,0.0,138.07,31.12,24.65,36.42,0.04,-272.75,-272.75,-49,554,-940,23.3,1.3,-33.4,23.3,1.4,-32.8,5.73,2.42,-30.3,28.2
2013-01-23 01:30:00,0.0,1.9135,0.0010,402.24,0.38,-1.0,0.0,138.07,31.12,24.66,36.42,0.04,-272.75,-272.75,-49,554,-940,23.4,1.3,-33.3,23.3,1.4,-32.8,5.73,2.40,-30.3,28.1
2013-01-23 01:31:00,0.0,1.9140,0.0009,402.31,0.43,-1.0,0.0,138.07,31.12,24.65,36.41,0.04,-272.75,-272.75,-49,554,-940,23.3,1.3,-33.4,23.3,1.4,-32.8,5.73,2.40,-30.2,28.2
2013-01-23 01:32:00,0.0,1.9143,0.0010,402.26,0.40,-1.0,0.0,138.07,31.11,24.65,36.41,0.04,-272.75,-272.75,-49,554,-940,23.3,1.3,-33.4,23.3,1.3,-32.9,5.73,2.38,-30.2,28.1
2013-01-23 01:33:00,0.0,1.9132,0.0008,402.10,0.41,-1.0,0.0,138.07,31.11,24.65,36.42,0.04,-272.75,-272.75,-49,554,-940,23.3,1.2,-33.6,23.3,1.3,-33.0,5.73,2.37,-30.2,28.1
2013-01-23 01:34:00,0.0,1.9133,0.0010,402.27,0.44,-1.0,0.0,138.07,31.10,24.65,36.41,0.04,-272.75,-272.75,-49,554,-940,23.4,1.2,-33.6,23.3,1.3,-33.0,5.73,2.38,-30.2,28.1
2013-01-23 01:35:00,0.0,1.9133,0.0009,402.31,0.35,-1.0,0.0,138.07,31.10,24.65,36.42,0.04,-272.75,-272.75,-49,554,-940,23.3,1.2,-33.6,23.3,1.3,-33.0,5.73,2.39,-30.2,28.2
2013-01-23 01:36:00,0.0,1.9131,0.0008,402.28,0.45,-1.0,0.0,138.07,31.09,24.66,36.41,0.04,-272.75,-272.75,-49,554,-940,23.3,1.3,-33.5,23.3,1.3,-33.0,5.73,2.39,-30.2,28.2
2013-01-23 01:37:00,0.0,1.9134,0.0010,402.34,0.45,-1.0,0.0,138.07,31.08,24.65,36.41,0.04,-272.75,-272.75,-49,554,-940,23.3,1.2,-33.6,23.3,1.3,-33.0,5.73,2.41,-30.2,28.2
2013-01-23 01:38:00,0.0,1.9130,0.0008,402.38,0.38,-1.0,0.0,138.07,31.08,24.66,36.41,0.04,-272.75,-272.75,-49,554,-940,23.3,1.3,-33.5,23.3,1.3,-33.0,5.73,2.42,-30.2,28.2
2013-01-23 01:39:00,0.0,1.9138,0.0009,402.32,0.35,-1.0,0.0,138.07,31.08,24.65,36.41,0.04,-272.75,-272.75,-49,554,-940,23.4,1.2,-33.6,23.3,1.3,-33.0,5.73,2.43,-30.2,28.2
2013-01-23 01:40:00,0.0,1.9138,0.0008,402.41,0.38,-1.0,0.0,138.07,31.08,24.65,36.41,0.04,-272.75,-272.75,-49,554,-940,23.4,1.3,-33.5,23.3,1.3,-33.0,5.73,2.43,-30.2,28.2
2013-01-23 01:41:00,0.0,1.9139,0.0010,402.42,0.50,-1.0,0.0,138.07,31.07,24.65,36.41,0.04,-272.75,-272.75,-49,554,-940,23.4,1.2,-33.5,23.3,1.3,-33.0,5.73,2.42,-30.2,28.2
2013-01-23 01:42:00,0.0,1.9129,0.0009,402.20,0.41,-1.0,0.0,138.07,31.07,24.66,36.42,0.04,-272.75,-272.75,-49,554,-940,23.4,1.2,-33.5,23.3,1.3,-33.0,5.73,2.41,-30.1,28.2
2013-01-23 01:43:00,0.0,1.9135,0.0009,402.34,0.37,-1.0,0.0,138.07,31.07,24.65,36.41,0.04,-272.75,-272.75,-49,554,-940,23.4,1.2,-33.6,23.3,1.3,-33.0,5.73,2.40,-30.2,28.2
2013-01-23 01:44:00,0.0,1.9138,0.0008,402.37,0.42,-1.0,0.0,138.07,31.06,24.65,36.42,0.04,-272.75,-272.75,-49,554,-940,23.4,1.3,-33.4,23.3,1.3,-32.9,5.73,2.38,-30.1,28.2
2013-01-23 01:45:00,0.0,1.9135,0.0009,402.25,0.42,-1.0,0.0,138.07,31.06,24.65,36.42,0.04,-272.75,-272.75,-49,554,-940,23.4,1.3,-33.3,23.3,1.4,-32.8,5.73,2.38,-30.2,28.2
2013-01-23 01:46:00,0.0,1.9133,0.0009,402.26,0.40,-1.0,0.0,138.07,31.06,24.66,36.42,0.04,-272.75,-272.75,-49,554,-940,23.4,1.3,-33.3,23.3,1.4,-32.8,5.73,2.38,-30.2,28.2
2013-01-23 01:47:00,0.0,1.9131,0.0009,402.28,0.43,-1.0,0.0,138.07,31.05,24.65,36.42,0.04,-272.74,-272.75,-49,554,-940,23.4,1.3,-33.4,23.3,1.3,-32.9,5.73,2.39,-30.2,28.2
2013-01-23 01:48:00,0.0,1.9130,0.0010,402.36,0.40,-1.0,0.0,138.07,31.05,24.65,36.41,0.04,-272.75,-272.75,-49,554,-940,23.4,1.2,-33.5,23.3,1.3,-32.9,5.73,2.39,-30.2,28.2
2013-01-23 01:49:00,0.0,1.9127,0.0009,402.20,0.42,-1.0,0.0,138.07,31.05,24.66,36.42,0.04,-272.75,-272.75,-49,554,-940,23.4,1.3,-33.5,23.3,1.3,-32.9,5.73,2.41,-30.2,28.2
2013-01-23 01:50:00,0.0,1.9125,0.0009,402.08,0.33,-0.9,0.8,138.07,31.04,24.66,36.43,0.04,-272.75,-272.75,-49,554,-940,23.4,1.2,-33.7,23.3,1.3,-32.9,5.73,2.42,-30.2,28.2
2013-01-23 01:51:00,0.0,1.9124,0.0009,402.20,0.43,-1.0,0.0,138.07,31.04,24.65,36.42,0.04,-272.75,-272.75,-49,554,-940,23.4,1.2,-33.8,23.3,1.3,-33.1,5.73,2.42,-30.1,28.2
2013-01-23 01:52:00,0.0,1.9121,0.0010,402.19,0.43,-1.0,0.0,138.07,31.04,24.66,36.42,0.04,-272.75,-272.75,-49,554,-940,23.4,1.2,-33.7,23.3,1.3,-33.1,5.73,2.42,-30.2,28.2
2013-01-23 01:53:00,0.0,1.9118,0.0008,402.25,0.41,-1.0,0.0,138.07,31.03,24.66,36.41,0.04,-272.75,-272.75,-49,554,-940,23.4,1.2,-33.8,23.3,1.3,-33.2,5.73,2.42,-30.2,28.2
2013-01-23 01:54:00,0.0,1.9122,0.0009,401.99,0.47,-1.0,0.0,138.07,31.03,24.65,36.42,0.04,-272.75,-272.75,-49,554,-940,23.4,1.2,-33.7,23.3,1.3,-33.2,5.73,2.40,-30.1,28.2
2013-01-23 01:55:00,0.0,1.9119,0.0008,402.11,0.37,-1.0,0.3,138.07,31.02,24.65,36.42,0.04,-272.75,-272.75,-49,554,-940,23.4,1.2,-33.8,23.3,1.3,-33.4,5.73,2.40,-30.2,28.2
2013-01-23 01:56:00,0.0,1.9118,0.0010,402.15,0.38,-1.0,0.0,138.07,31.02,24.65,36.42,0.04,-272.75,-272.75,-49,554,-940,23.4,1.2,-33.8,23.3,1.3,-33.4,5.73,2.38,-30.1,28.2
2013-01-23 01:57:00,0.0,1.9122,0.0009,402.05,0.45,-1.0,0.0,138.07,31.02,24.66,36.42,0.04,-272.75,-272.75,-49,554,-940,23.4,1.2,-34.0,23.3,1.3,-33.4,5.73,2.38,-30.1,28.2
2013-01-23 01:58:00,0.0,1.9123,0.0008,402.11,0.38,-1.0,0.0,138.07,31.02,24.66,36.42,0.04,-272.75,-272.75,-49,554,-940,23.4,1.2,-34.0,23.3,1.3,-33.4,5.73,2.37,-30.1,28.2
2013-01-23 01:59:00,0.0,1.9124,0.0011,402.27,0.44,-1.0,0.0,138.07,31.01,24.65,36.42,0.04,-272.75,-272.75,-49,554,-940,23.4,1.2,-34.0,23.3,1.3,-33.4,5.73,2.38,-30.1,28.2
2013-01-23 02:00:00,0.0,1.9118,0.0012,401.96,0.40,-1.0,0.0,138.07,31.01,24.65,36.42,0.04,-272.75,-272.75,-49,554,-940,23.4,1.2,-34.0,23.3,1.3,-33.4,5.73,2.39,-30.1,28.2
2013-01-23 02:01:00,0.0,1.9109,0.0010,402.06,0.36,-1.0,0.0,138.07,31.00,24.66,36.42,0.04,-272.75,-272.75,-49,554,-940,23.4,1.2,-34.0,23.3,1.3,-33.5,5.73,2.41,-30.1,28.2
2013-01-23 02:02:00,0.0,1.9120,0.0015,402.09,0.46,-0.1,6.3,138.07,31.00,24.66,36.42,0.04,-272.75,-272.75,-49,554,-940,23.4,1.2,-34.2,23.3,1.2,-33.6,5.73,2.42,-30.1,28.2
2013-01-23 02:03:00,0.0,1.9153,0.0021,402.21,0.42,-0.9,1.0,138.07,30.99,24.66,36.42,0.04,-272.75,-272.75,-49,554,-940,23.4,1.2,-34.2,23.3,1.2,-33.6,5.73,2.43,-30.1,28.2
2013-01-23 02:04:00,0.0,1.9150,0.0019,402.27,0.37,-1.0,0.0,138.08,30.99,24.66,36.41,0.04,-272.75,-272.75,-49,554,-939,23.4,1.2,-34.2,23.3,1.2,-33.6,5.73,2.43,-30.1,28.2
2013-01-23 02:05:00,0.0,1.9123,0.0010,402.20,0.38,-0.9,0.9,138.08,30.99,24.65,36.42,0.04,-272.75,-272.75,-49,554,-940,23.4,1.2,-34.2,23.3,1.2,-33.6,5.73,2.41,-30.1,28.2
2013-01-23 02:06:00,0.0,1.9113,0.0008,402.01,0.39,-1.0,0.0,138.08,30.99,24.65,36.42,0.04,-272.75,-272.75,-49,554,-940,23.4,1.1,-34.4,23.3,1.2,-33.8,5.73,2.39,-30.1,28.2
2013-01-23 02:07:00,0.0,1.9112,0.0012,401.97,0.48,-1.0,0.0,138.08,30.98,24.65,36.42,0.04,-272.75,-272.75,-49,554,-939,23.4,1.1,-34.5,23.3,1.2,-33.8,5.73,2.37,-30.1,28.2
2013-01-23 02:08:00,0.0,1.9115,0.0010,402.12,0.42,-0.7,2.6,138.08,30.97,24.65,36.42,0.04,-272.75,-272.75,-49,554,-940,23.4,1.2,-34.3,23.3,1.2,-33.8,5.73,2.37,-30.1,28.2
2013-01-23 02:09:00,0.0,1.9129,0.0010,402.12,0.40,-1.0,0.0,138.08,30.97,24.66,36.41,0.04,-272.75,-272.75,-49,554,-940,23.4,1.2,-34.2,23.3,1.2,-33.6,5.73,2.38,-30.1,28.2
2013-01-23 02:10:00,0.0,1.9137,0.0011,402.16,0.41,-0.4,4.7,138.08,30.96,24.65,36.42,0.04,-272.75,-272.75,-49,554,-940,23.4,1.2,-34.2,23.3,1.2,-33.6,5.73,2.38,-30.1,28.2
2013-01-23 02:11:00,0.0,1.9131,0.0009,401.94,0.43,-1.0,0.0,138.07,30.96,24.65,36.43,0.04,-272.75,-272.75,-49,554,-940,23.4,1.2,-34.2,23.3,1.2,-33.6,5.73,2.40,-30.1,28.2
2013-01-23 02:12:00,0.0,1.9118,0.0011,402.03,0.41,-1.0,0.4,138.08,30.96,24.66,36.42,0.04,-272.75,-272.75,-49,554,-940,23.4,1.2,-34.2,23.3,1.2,-33.6,5.73,2.42,-30.1,28.2
2013-01-23 02:13:00,0.0,1.9110,0.0010,402.09,0.40,-0.5,2.6,138.08,30.95,24.66,36.42,0.04,-272.75,-272.75,-49,554,-940,23.4,1.2,-34.2,23.4,1.2,-33.6,5.73,2.43,-30.1,28.2
2013-01-23 02:14:00,0.0,1.9117,0.0012,402.15,0.36,-1.0,0.0,138.08,30.94,24.65,36.42,0.04,-272.75,-272.75,-49,555,-940,23.4,1.2,-34.2,23.3,1.2,-33.6,5.73,2.43,-30.1,28.2
2013-01-23 02:15:00,0.0,1.9122,0.0007,402.10,0.44,-0.9,0.7,138.08,30.94,24.65,36.42,0.04,-272.75,-272.75,-49,554,-940,23.4,1.2,-34.2,23.3,1.2,-33.6,5.73,2.41,-30.1,28.2
2013-01-23 02:16:00,0.0,1.9115,0.0010,402.10,0.43,-1.0,0.0,138.08,30.94,24.66,36.42,0.04,-272.75,-272.75,-49,554,-939,23.4,1.2,-34.2,23.3,1.2,-33.6,5.73,2.40,-30.1,28.3
2013-01-23 02:17:00,0.0,1.9119,0.0010,402.07,0.45,-1.0,0.0,138.08,30.93,24.65,36.42,0.04,-272.75,-272.75,-49,554,-940,23.4,1.2,-34.2,23.3,1.2,-33.5,5.73,2.38,-30.1,28.2
2013-01-23 02:18:00,0.0,1.9118,0.0010,402.07,0.44,-0.9,0.4,138.08,30.93,24.65,36.42,0.04,-272.75,-272.75,-49,555,-940,23.4,1.2,-34.2,23.3,1.2,-33.6,5.73,2.37,-30.2,28.2